Weather History for Middletown, PA

Change the Weather History Date:

Monday, July 7, 2014

  Actual Average Record
Temperature  
Mean Temperature 84 °F 76 °F  
Max Temperature 92 °F 86 °F 101 °F (1988)
Min Temperature 75 °F 66 °F 52 °F (1983)
Degree Days  
Heating Degree Days 0 0  
Month to date heating degree days 0 0  
Since 1 June heating degree days 1 18  
Since 1 July heating degree days 0 0  
Cooling Degree Days 19 11  
Month to date cooling degree days 99 75  
Year to date cooling degree days 406 353  
Since 1 June cooling degree days 346 288  
Growing Degree Days 33 (Base 50)    
Moisture  
Dew Point 64 °F    
Average Humidity 53    
Maximum Humidity 64    
Minimum Humidity 41    
Precipitation  
Precipitation T in 0.14 in 0.86 in (1904)
Month to date precipitation 0.18 0.99  
Year to date precipitation 25.60 20.12  
Sea Level Pressure  
Sea Level Pressure 29.83 in    
Wind  
Wind Speed 9 mph (SW)    
Max Wind Speed 18 mph    
Max Gust Speed 27 mph    
Visibility 10 miles    
Events      
T = Trace of Precipitation, MM = Missing Value Source: NWS Daily Summary

Daily Weather History Graph

Daily Weather History Graph

Search for Another Location

Airport:

Trip Planner

Search our weather history database for the weather conditions in past years. The results will help you decide how hot, cold, wet, or windy it might be!

Date:

Astronomy

Jul. 07, 2014 Rise Set
Actual Time 5:44 AM EDT 8:39 PM EDT
Civil Twilight 5:12 AM EDT 9:11 PM EDT
Nautical Twilight 4:30 AM EDT 9:52 PM EDT
Astronomical Twilight 3:43 AM EDT 10:39 PM EDT
Moon 3:39 PM EDT (7/7) 1:36 AM EDT (7/7)
Length of Visible Light 15h 59m
Length of Day
14h 54m
Waxing Gibbous, 72% of the Moon is Illuminated
Jul 7
Waxing Gibbous
Jul 12
Full
Jul 18
Last Quarter
Jul 26
New
Aug 3
First Quarter

Hourly Weather History & Observations

Time (EDT) Temp. Heat Index Dew Point Humidity Pressure Visibility Wind Dir Wind Speed Gust Speed Precip Events Conditions
12:56 AM 77.0 °F - 63.0 °F 62% 29.91 in 10.0 mi SSW 6.9 mph - N/A   Overcast
1:56 AM 75.9 °F - 62.1 °F 62% 29.89 in 10.0 mi SSW 5.8 mph - N/A   Overcast
2:56 AM 75.9 °F - 62.1 °F 62% 29.88 in 10.0 mi SSW 8.1 mph - N/A   Mostly Cloudy
3:56 AM 75.0 °F - 62.1 °F 64% 29.87 in 10.0 mi SW 6.9 mph - N/A   Overcast
4:56 AM 75.9 °F - 62.1 °F 62% 29.87 in 10.0 mi SSW 8.1 mph - N/A   Mostly Cloudy
5:56 AM 75.0 °F - 63.0 °F 66% 29.87 in 10.0 mi SSW 12.7 mph - N/A   Overcast
6:56 AM 75.0 °F - 63.0 °F 66% 29.88 in 10.0 mi WSW 4.6 mph - 0.00 in   Mostly Cloudy
7:56 AM 79.0 °F - 64.0 °F 60% 29.88 in 10.0 mi Calm Calm - N/A   Scattered Clouds
8:56 AM 80.1 °F 81.7 °F 64.0 °F 58% 29.87 in 10.0 mi SW 8.1 mph - N/A   Scattered Clouds
9:56 AM 82.9 °F 84.4 °F 64.0 °F 53% 29.86 in 10.0 mi SW 8.1 mph - N/A   Clear
10:56 AM 86.0 °F 86.8 °F 63.0 °F 46% 29.85 in 10.0 mi West 12.7 mph 17.3 mph N/A   Mostly Cloudy
11:56 AM 88.0 °F 88.4 °F 62.1 °F 42% 29.83 in 10.0 mi Variable 4.6 mph - N/A   Scattered Clouds
12:56 PM 89.1 °F 89.3 °F 62.1 °F 40% 29.83 in 10.0 mi WSW 15.0 mph 21.9 mph N/A   Scattered Clouds
1:56 PM 89.6 °F 90.1 °F 62.6 °F 40% 29.81 in 10.0 mi WSW 9.2 mph 18.4 mph N/A   Mostly Cloudy
2:56 PM 90.0 °F 90.3 °F 62.1 °F 39% 29.78 in 10.0 mi WSW 12.7 mph 18.4 mph N/A   Scattered Clouds
3:56 PM 91.0 °F 93.8 °F 66.0 °F 44% 29.78 in 10.0 mi SSW 11.5 mph 23.0 mph N/A   Scattered Clouds
4:56 PM 90.0 °F 92.8 °F 66.9 °F 46% 29.76 in 10.0 mi SSW 8.1 mph 24.2 mph N/A   Scattered Clouds
5:56 PM 90.0 °F 92.8 °F 66.9 °F 46% 29.74 in 10.0 mi SSW 9.2 mph 23.0 mph N/A   Scattered Clouds
6:56 PM 89.1 °F 91.3 °F 66.0 °F 46% 29.76 in 10.0 mi SW 6.9 mph - N/A   Scattered Clouds
7:56 PM 87.1 °F 89.9 °F 66.9 °F 51% 29.77 in 10.0 mi Variable 5.8 mph - N/A   Scattered Clouds
8:56 PM 86.0 °F 88.2 °F 66.0 °F 51% 29.79 in 10.0 mi Variable 4.6 mph - N/A   Scattered Clouds
9:56 PM 84.0 °F 86.5 °F 66.9 °F 56% 29.80 in 10.0 mi West 8.1 mph - N/A   Scattered Clouds
10:56 PM 84.0 °F 86.5 °F 66.9 °F 56% 29.80 in 10.0 mi SW 12.7 mph 18.4 mph N/A   Mostly Cloudy
11:56 PM 82.9 °F 85.8 °F 68.0 °F 60% 29.81 in 10.0 mi SW 13.8 mph - N/A   Mostly Cloudy